[[{"header":{"parameterUnit":"m.s-1","parameterCategory":1,"la1":30.2991,"la2":30.254,"lo1":-89.0895,"lo2":-89.0444,"dy":0.0017,"dx":0.0017,"nx":28,"ny":28,"refTime":"2025-03-25T09:00:00:Z","depth":0,"parameterNumber":2,"parameterNumberName":"U-component_of_WINDS"},"data":[0,0,0,0,0,0,0,0,0,0,0,0,0,0,0,0,0,0,0,0,0,0,0,0,0,0,0,0,0,0,0,0,0,0,0,0,0,0,0,0,0,0,0,0,0,0,0,0,0,0,0,0,0,0,0,0,0,0,-1.256,-1.2561,0,-1.2615,-1.2616,-1.2616,-1.266,-1.2661,-1.2661,-1.2662,-1.2714,-1.2715,-1.2716,0,0,0,0,0,0,0,0,0,0,0,0,0,-1.2491,-1.2492,-1.256,-1.2561,-1.2562,-1.2615,-1.2616,-1.2616,-1.266,-1.2661,-1.2661,-1.2662,-1.2714,-1.2715,-1.2716,0,0,0,0,0,0,0,0,0,0,0,0,0,-1.253,-1.2492,-1.256,-1.259,-1.2593,-1.2615,-1.2616,-1.2617,-1.266,-1.2661,-1.2661,-1.2662,-1.2713,-1.2715,-1.2716,-1.2711,0,0,-1.2721,-1.2721,0,0,0,0,0,0,0,0,-1.2528,-1.2533,-1.2585,-1.2588,-1.2592,-1.2632,-1.261,-1.2648,-1.266,-1.2635,-1.2662,-1.2662,-1.2686,-1.269,-1.2698,-1.2714,-1.2716,-1.2721,-1.2722,-1.2722,-1.2723,0,0,0,0,0,0,0,-1.2525,-1.2531,-1.2582,-1.2586,-1.259,-1.26,-1.2606,-1.2618,-1.2655,-1.2637,-1.264,-1.2646,-1.2688,-1.2697,-1.27,-1.2717,-1.2721,-1.2722,-1.2723,-1.2723,-1.2731,-1.273,0,0,0,0,0,0,-1.2518,-1.2528,-1.258,-1.2583,-1.2561,-1.26,-1.2607,-1.2618,-1.2656,-1.2662,-1.2646,-1.2648,-1.2694,-1.2698,-1.2702,-1.2698,-1.2722,-1.2724,-1.2724,-1.2731,-1.273,-1.273,0,0,0,0,0,0,-1.2517,-1.2523,-1.2578,-1.2557,-1.2565,-1.2601,-1.2612,-1.2619,-1.2628,-1.2662,-1.2669,-1.2648,-1.2695,-1.27,-1.2709,-1.27,-1.2724,-1.2726,-1.2732,-1.2731,-1.273,-1.2691,0,0,0,0,0,0,-1.2515,-1.2522,-1.2521,-1.2557,-1.2566,-1.2585,-1.2612,-1.2619,-1.2631,-1.2634,-1.2666,-1.2672,-1.2695,-1.2706,-1.271,-1.2703,-1.2727,-1.2733,-1.2732,-1.273,-1.2693,-1.2688,-1.2685,0,0,0,0,0,-1.2512,-1.2507,-1.2521,-1.2527,-1.2566,-1.2584,-1.2589,-1.2617,-1.263,-1.2629,-1.2651,-1.2671,-1.2701,-1.2707,-1.2712,-1.2705,-1.2734,-1.2732,-1.2731,-1.2695,-1.2689,-1.2685,0,0,0,0,0,0,-1.2469,-1.2512,-1.2528,-1.2535,-1.2556,-1.2592,-1.2591,-1.2611,-1.2628,-1.263,-1.2663,-1.267,-1.2675,-1.2691,-1.2697,-1.2702,-1.272,-1.2719,-1.2691,-1.2686,-1.2682,-1.2678,-1.2728,0,0,0,0,0,-1.246,-1.2473,-1.251,-1.2512,-1.2522,-1.2555,-1.2564,-1.2584,-1.2606,-1.2615,-1.2638,-1.2658,-1.2672,-1.268,-1.2695,-1.2696,-1.2703,-1.2693,-1.2689,-1.2685,-1.2684,-1.2685,-1.2681,-1.2725,-1.2725,-1.2725,0,0,-1.2442,-1.2468,-1.2473,-1.2504,-1.2523,-1.2534,-1.2562,-1.2572,-1.2581,-1.2616,-1.2626,-1.2644,-1.2668,-1.2673,-1.2676,-1.2686,-1.2674,-1.2684,-1.268,-1.2681,-1.2683,-1.2678,-1.2675,-1.2724,-1.2724,-1.2724,0,0,-1.2415,-1.2436,-1.244,-1.2458,-1.2486,-1.2508,-1.2509,-1.2542,-1.2555,-1.2566,-1.2593,-1.2603,-1.2626,-1.2642,-1.2654,-1.2633,-1.2651,-1.2637,-1.2614,-1.2615,-1.2611,-1.2608,-1.26,-1.2596,-1.2635,-1.2635,-1.2635,0,-1.2388,-1.2407,-1.2439,-1.2448,-1.2461,-1.2495,-1.2498,-1.2514,-1.2545,-1.2552,-1.2563,-1.2593,-1.2612,-1.2621,-1.2615,-1.2624,-1.2625,-1.2632,-1.261,-1.2607,-1.2604,-1.2596,-1.2593,-1.2633,-1.2633,-1.2634,-1.2634,0,-1.2373,-1.2386,-1.2386,-1.2416,-1.2428,-1.2434,-1.2466,-1.2474,-1.2493,-1.2513,-1.2523,-1.2548,-1.2567,-1.2571,-1.2589,-1.2582,-1.2587,-1.2604,-1.2622,-1.2598,-1.2591,-1.2588,-1.263,-1.2631,-1.2632,-1.2632,0,0,-1.2319,-1.2367,-1.2366,-1.238,-1.2414,-1.2424,-1.2431,-1.2452,-1.2458,-1.2478,-1.2484,-1.2503,-1.2518,-1.2531,-1.2551,-1.2552,-1.2532,-1.2568,-1.2569,-1.2559,-1.2524,-1.2511,-1.2507,-1.2546,-1.2545,-1.2545,-1.2522,0,-1.2296,-1.2313,-1.2342,-1.2348,-1.2359,-1.2392,-1.2398,-1.2419,-1.2438,-1.2449,-1.247,-1.2483,-1.2503,-1.2511,-1.2513,-1.2534,-1.2525,-1.2536,-1.255,-1.255,-1.2541,-1.2503,-1.2489,-1.2466,-1.2519,-1.2519,-1.2519,0,-1.2272,-1.2291,-1.2299,-1.2331,-1.2337,-1.2342,-1.2363,-1.2374,-1.2398,-1.2412,-1.2426,-1.2449,-1.2457,-1.2475,-1.2486,-1.2493,-1.25,-1.2512,-1.2511,-1.2512,-1.2532,-1.2502,-1.246,-1.2456,-1.2515,-1.2515,-1.2515,0,-1.223,-1.2258,-1.2266,-1.2277,-1.2315,-1.2318,-1.2334,-1.2358,-1.2369,-1.2387,-1.2394,-1.2412,-1.2421,-1.2435,-1.2461,-1.2472,-1.2468,-1.2489,-1.2479,-1.2478,-1.2476,-1.2475,-1.2432,-1.2482,-1.2483,-1.2483,-1.2483,0,-1.2201,-1.2204,-1.2248,-1.2253,-1.2257,-1.229,-1.2292,-1.2311,-1.2333,-1.2341,-1.237,-1.2377,-1.2412,-1.2422,-1.2443,-1.2448,-1.2453,-1.2463,-1.2468,-1.246,-1.2458,-1.2464,-1.2465,-1.2482,-1.2482,-1.2482,-1.2482,0,-1.2155,-1.2184,-1.2195,-1.2231,-1.224,-1.2241,-1.2271,-1.2276,-1.2298,-1.2307,-1.2311,-1.2344,-1.2358,-1.2386,-1.2408,-1.2421,-1.2421,-1.2431,-1.2413,-1.2416,-1.2404,-1.2404,-1.2362,-1.2358,-1.2412,-1.2411,-1.2411,0,-1.2133,-1.2137,-1.2173,-1.2181,-1.2196,-1.2208,-1.2219,-1.2252,-1.2262,-1.2289,-1.229,-1.2307,-1.2321,-1.2342,-1.2367,-1.2383,-1.2393,-1.2377,-1.2395,-1.2386,-1.2391,-1.239,-1.2389,-1.2372,-1.2371,-1.2371,-1.237,0,-1.2092,-1.2106,-1.2122,-1.2142,-1.2154,-1.2172,-1.219,-1.2195,-1.2231,-1.2241,-1.2256,-1.2267,-1.2289,-1.2304,-1.2324,-1.234,-1.236,-1.2365,-1.2363,-1.2353,-1.2342,-1.2347,-1.2401,-1.2365,-1.2366,-1.2366,-1.2366,-1.2367,-1.2057,-1.2061,-1.2087,-1.2102,-1.212,-1.2137,-1.2143,-1.2166,-1.2179,-1.22,-1.2219,-1.2232,-1.2255,-1.2284,-1.2298,-1.2307,-1.2318,-1.2315,-1.2314,-1.2313,-1.2309,-1.2342,-1.2311,-1.2311,-1.2312,-1.2312,-1.2312,0,-1.2016,-1.2034,-1.2048,-1.2074,-1.2086,-1.2106,-1.2128,-1.2136,-1.2148,-1.2168,-1.2182,-1.2199,-1.2214,-1.224,-1.2257,-1.226,-1.2269,-1.2263,-1.2262,-1.2265,-1.2299,-1.2299,-1.2254,-1.2254,-1.2254,-1.2254,-1.2254,-1.2254,-1.1995,-1.2003,-1.2021,-1.2037,-1.2056,-1.2069,-1.208,-1.2095,-1.2111,-1.2129,-1.2142,-1.2159,-1.2182,-1.22,-1.2215,-1.2222,-1.2226,-1.2216,-1.2226,-1.2257,-1.2263,-1.2268,-1.2267,-1.2217,-1.2217,-1.2191,-1.219,-1.219]},{"header":{"parameterUnit":"m.s-1","parameterCategory":1,"la1":30.2991,"la2":30.254,"lo1":-89.0895,"lo2":-89.0444,"dy":0.0017,"dx":0.0017,"nx":28,"ny":28,"refTime":"2025-03-25T09:00:00:Z","depth":0,"parameterNumber":3,"parameterNumberName":"V-component_of_WINDS"},"data":[0,0,0,0,0,0,0,0,0,0,0,0,0,0,0,0,0,0,0,0,0,0,0,0,0,0,0,0,0,0,0,0,0,0,0,0,0,0,0,0,0,0,0,0,0,0,0,0,0,0,0,0,0,0,0,0,0,0,0.4771,0.4771,0,0.4767,0.4767,0.4767,0.4736,0.4735,0.4735,0.4734,0.473,0.4731,0.4731,0,0,0,0,0,0,0,0,0,0,0,0,0,0.4754,0.4754,0.4771,0.4771,0.4771,0.4767,0.4767,0.4767,0.4736,0.4735,0.4734,0.4734,0.473,0.4731,0.4731,0,0,0,0,0,0,0,0,0,0,0,0,0,0.4757,0.4755,0.4771,0.4755,0.4754,0.4767,0.4767,0.4767,0.4736,0.4735,0.4734,0.4733,0.473,0.4731,0.4731,0.476,0,0,0.4734,0.4735,0,0,0,0,0,0,0,0,0.4757,0.4757,0.4758,0.4757,0.4755,0.4751,0.4759,0.4765,0.4737,0.4743,0.4734,0.4733,0.4738,0.4738,0.474,0.476,0.4759,0.4734,0.4735,0.4735,0.4736,0,0,0,0,0,0,0,0.4757,0.4757,0.477,0.4758,0.4756,0.4749,0.4748,0.476,0.4747,0.4742,0.474,0.474,0.4737,0.4739,0.474,0.4759,0.4734,0.4735,0.4736,0.4736,0.4802,0.4803,0,0,0,0,0,0,0.4758,0.4758,0.477,0.477,0.4753,0.475,0.4749,0.4753,0.4747,0.4745,0.4741,0.4739,0.4738,0.4739,0.4739,0.4772,0.4735,0.4736,0.4737,0.4801,0.4802,0.4804,0,0,0,0,0,0,0.4758,0.476,0.477,0.4763,0.4764,0.4751,0.4757,0.4754,0.4756,0.4746,0.4743,0.4746,0.4737,0.4738,0.4755,0.4771,0.4737,0.4737,0.4799,0.4801,0.4803,0.4837,0,0,0,0,0,0,0.4758,0.476,0.477,0.4763,0.4764,0.4786,0.4758,0.4755,0.4757,0.4754,0.4749,0.4747,0.4736,0.4754,0.4756,0.4772,0.4738,0.4798,0.48,0.4802,0.4835,0.484,0.4845,0,0,0,0,0,0.4757,0.4781,0.4771,0.4773,0.4777,0.4787,0.4787,0.4774,0.4759,0.4769,0.4763,0.4747,0.4769,0.4756,0.4758,0.4774,0.4797,0.48,0.4802,0.4833,0.4839,0.4845,0,0,0,0,0,0,0.479,0.4779,0.4769,0.479,0.479,0.4781,0.4794,0.4781,0.4785,0.4782,0.4765,0.4764,0.4784,0.4781,0.4766,0.4801,0.478,0.4784,0.4803,0.4809,0.4814,0.4814,0.4739,0,0,0,0,0,0.48,0.4808,0.4798,0.4818,0.4819,0.4807,0.481,0.48,0.4799,0.4798,0.4793,0.4792,0.4799,0.4804,0.4809,0.4834,0.4833,0.4847,0.4852,0.4856,0.4859,0.4872,0.4878,0.4812,0.4812,0.4812,0,0,0.482,0.4815,0.4822,0.4825,0.4823,0.4832,0.4806,0.4817,0.4824,0.48,0.4815,0.4812,0.481,0.4831,0.484,0.4829,0.4877,0.4859,0.4863,0.4864,0.4875,0.4882,0.4887,0.4814,0.4814,0.4814,0,0,0.4862,0.4859,0.4875,0.4874,0.4871,0.4863,0.4867,0.4861,0.4857,0.4872,0.4854,0.4862,0.4874,0.4874,0.4875,0.4916,0.4902,0.4919,0.4945,0.4958,0.4963,0.4968,0.4982,0.4988,0.4922,0.4922,0.4922,0,0.4887,0.49,0.4885,0.4897,0.4899,0.4877,0.4894,0.4893,0.4893,0.4895,0.4883,0.4897,0.4895,0.4915,0.4925,0.4927,0.4931,0.4919,0.4963,0.4968,0.4972,0.4986,0.4991,0.4924,0.4923,0.4923,0.4923,0,0.4932,0.4941,0.4955,0.4954,0.4958,0.4972,0.496,0.4965,0.4955,0.4948,0.4964,0.496,0.4964,0.4968,0.4958,0.4987,0.4981,0.4966,0.4945,0.498,0.4993,0.4998,0.4927,0.4926,0.4925,0.4925,0,0,0.4994,0.4985,0.499,0.499,0.4986,0.4993,0.5006,0.501,0.5015,0.5016,0.5027,0.5037,0.5023,0.5025,0.5015,0.5026,0.5059,0.501,0.501,0.5019,0.5091,0.5102,0.5109,0.505,0.5051,0.5052,0.5091,0,0.5034,0.5056,0.5043,0.5067,0.5075,0.5055,0.5066,0.5065,0.5059,0.5066,0.5059,0.5067,0.5048,0.5049,0.5059,0.5053,0.5073,0.505,0.506,0.5061,0.5061,0.5115,0.5127,0.5165,0.5096,0.5097,0.5098,0,0.5084,0.5086,0.5111,0.5105,0.5108,0.5118,0.5121,0.5127,0.5126,0.512,0.5122,0.5109,0.5122,0.5101,0.5118,0.5103,0.5106,0.5103,0.5104,0.5105,0.5081,0.5118,0.5177,0.5182,0.5106,0.5105,0.5104,0,0.5127,0.5136,0.5152,0.5152,0.5146,0.5154,0.5151,0.5148,0.5151,0.5154,0.5156,0.516,0.5162,0.5165,0.5154,0.5139,0.5173,0.5151,0.5169,0.517,0.5177,0.5177,0.5238,0.518,0.5179,0.5179,0.5179,0,0.5173,0.5189,0.5171,0.5181,0.5199,0.5183,0.5201,0.5197,0.5194,0.5203,0.5185,0.5194,0.5178,0.5185,0.5176,0.5192,0.5193,0.519,0.5187,0.5192,0.5192,0.5194,0.5191,0.5181,0.5181,0.518,0.518,0,0.5224,0.5213,0.5229,0.5221,0.5219,0.5233,0.5226,0.5235,0.5228,0.5239,0.5241,0.523,0.5237,0.5226,0.5232,0.5226,0.5248,0.5242,0.5249,0.5247,0.5266,0.5265,0.5331,0.5338,0.5275,0.5275,0.5276,0,0.5254,0.5266,0.5259,0.5264,0.5262,0.527,0.5273,0.5258,0.5262,0.5261,0.527,0.5276,0.528,0.5293,0.5286,0.5291,0.5284,0.5307,0.5285,0.5289,0.5285,0.5284,0.5285,0.5311,0.5312,0.5313,0.5313,0,0.5309,0.5303,0.5308,0.5311,0.5315,0.5317,0.5318,0.5322,0.5307,0.5313,0.532,0.5323,0.5329,0.5336,0.5338,0.5336,0.5322,0.532,0.5325,0.5329,0.5333,0.5331,0.5261,0.5319,0.5318,0.5318,0.5318,0.5317,0.5351,0.536,0.5357,0.5363,0.5362,0.5363,0.5371,0.5364,0.537,0.5374,0.5365,0.5375,0.5372,0.5375,0.5374,0.5381,0.5372,0.5378,0.538,0.5382,0.5385,0.5332,0.5382,0.5382,0.5382,0.5381,0.5381,0,0.5405,0.5402,0.5407,0.5409,0.5414,0.54,0.54,0.5405,0.5413,0.5412,0.5416,0.5425,0.5431,0.5424,0.5428,0.5436,0.543,0.5437,0.5437,0.5437,0.5393,0.5389,0.5442,0.5442,0.5442,0.5442,0.5442,0.5442,0.5434,0.5449,0.5442,0.5457,0.5454,0.5463,0.5464,0.5465,0.5464,0.5474,0.5479,0.5474,0.547,0.5475,0.548,0.5477,0.548,0.549,0.5486,0.5446,0.544,0.5434,0.543,0.5491,0.5491,0.5528,0.5529,0.5529]}]]